Location: Boiro
(42.6475°N, 8.8834°W)
Time: 18:36:51
(UTC+01:00)

Transit 2A Rocket - All Passes

Search period start: 30 November 2021 00:00
Search period end: 10 December 2021 00:00
Orbit: 584 x 918 km, 66.7° (Epoch: 30 November)

Date Brightness Start Highest point End Pass type
(mag) Time Alt. Az. Time Alt. Az. Time Alt. Az.
30 Nov - 08:31:12 10° SE 08:34:17 15° ESE 08:37:29 10° ENE daylight
30 Nov - 10:10:25 10° SSW 10:16:01 85° WNW 10:22:05 10° NNE daylight
30 Nov - 11:55:29 10° W 11:59:37 20° NW 12:03:55 10° N daylight
30 Nov - 17:11:48 10° N 17:16:19 21° NE 17:20:41 10° E daylight
30 Nov - 18:53:43 10° NNW 18:59:51 90° ENE 19:05:35 10° SSE visible
30 Nov - 20:38:31 10° WNW 20:41:32 14° W 20:44:29 10° SW visible
01 Dec - 09:27:55 10° SSW 09:33:23 60° ESE 09:39:18 10° NE daylight
01 Dec - 11:11:35 10° WSW 11:16:29 28° NW 11:21:38 10° NNE daylight
01 Dec - 16:29:40 10° N 16:33:04 15° NNE 16:36:24 10° ENE daylight
01 Dec - 18:11:04 10° NNW 18:17:06 58° NE 18:22:45 10° SE daylight
01 Dec - 19:54:32 10° NW 19:59:17 25° WSW 20:03:47 10° SSW visible
02 Dec - 08:45:52 10° S 08:50:54 36° ESE 08:56:18 10° NE daylight
02 Dec - 10:28:07 10° WSW 10:33:28 41° NW 10:39:12 10° NNE daylight
02 Dec - 12:15:51 10° NW 12:17:53 12° NNW 12:19:58 10° N daylight
02 Dec - 15:48:03 10° N 15:49:41 11° NNE 15:51:19 10° NE daylight
02 Dec - 17:28:32 10° NNW 17:34:12 38° NE 17:39:34 10° ESE daylight
02 Dec - 19:11:18 10° NW 19:16:53 41° WSW 19:22:09 10° S visible
03 Dec - 08:04:24 10° SSE 08:08:34 22° ESE 08:12:56 10° ENE visible
03 Dec - 09:45:01 10° SW 09:50:37 63° NW 09:56:39 10° NNE daylight
03 Dec - 11:31:01 10° WNW 11:34:32 16° NW 11:38:10 10° N daylight
03 Dec - 16:46:08 10° NNW 16:51:09 26° NE 16:55:59 10° E daylight
03 Dec - 18:28:21 10° NW 18:34:22 68° WSW 18:39:59 10° SSE visible
04 Dec - 07:24:10 10° ESE 07:26:20 12° E 07:28:32 10° ENE visible
04 Dec - 09:02:16 10° SSW 09:07:53 82° ESE 09:13:58 10° NNE daylight
04 Dec - 10:46:50 10° W 10:51:19 22° NW 10:55:59 10° N daylight
04 Dec - 16:03:51 10° N 16:07:59 18° NE 16:12:00 10° E daylight
04 Dec - 17:45:36 10° NNW 17:51:43 77° ENE 17:57:24 10° SE daylight
04 Dec - 19:29:48 10° WNW 19:33:34 18° WSW 19:37:11 10° SW visible
05 Dec - 08:19:56 10° S 08:25:19 50° ESE 08:31:07 10° NE visible
05 Dec - 10:03:06 10° WSW 10:08:13 32° NW 10:13:37 10° NNE daylight
05 Dec - 15:21:50 10° N 15:24:41 13° NNE 15:27:30 10° ENE daylight
05 Dec - 17:03:00 10° NNW 17:08:54 49° NE 17:14:27 10° SE daylight
05 Dec - 18:46:11 10° NW 18:51:16 29° WSW 18:56:03 10° SSW visible
06 Dec - 07:38:03 10° SSE 07:42:53 30° ESE 07:48:00 10° NE visible
06 Dec - 09:19:45 10° SW 09:25:16 48° NW 09:31:09 10° NNE daylight
06 Dec - 11:06:47 10° WNW 11:09:30 13° NNW 11:12:15 10° N daylight
06 Dec - 16:20:31 10° NNW 16:25:57 33° NE 16:31:07 10° ESE daylight
06 Dec - 18:03:04 10° NW 18:08:50 49° WSW 18:14:13 10° S daylight
07 Dec - 06:56:53 10° SE 07:00:34 18° ESE 07:04:25 10° ENE visible
07 Dec - 08:36:46 10° SW 08:42:27 75° WNW 08:48:33 10° NNE daylight
07 Dec - 10:22:14 10° WNW 10:26:12 18° NW 10:30:15 10° N daylight
07 Dec - 15:38:09 10° N 15:42:52 23° NE 15:47:24 10° E daylight
07 Dec - 17:20:11 10° NNW 17:26:16 80° WSW 17:31:54 10° SSE daylight
07 Dec - 19:05:46 10° W 19:07:48 12° W 19:09:48 10° WSW visible
08 Dec - 07:54:10 10° SSW 07:59:47 69° ESE 08:05:49 10° NE visible
08 Dec - 09:38:14 10° W 09:43:01 25° NW 09:48:00 10° NNE daylight
08 Dec - 14:55:56 10° N 14:59:39 16° NE 15:03:15 10° ENE daylight
08 Dec - 16:37:30 10° NNW 16:43:33 65° NE 16:49:11 10° SE daylight
08 Dec - 18:21:16 10° WNW 18:25:35 21° WSW 18:29:41 10° SSW daylight
09 Dec - 07:11:59 10° S 07:17:14 42° ESE 07:22:53 10° NE visible
09 Dec - 08:54:39 10° WSW 08:59:58 37° NW 09:05:36 10° NNE daylight
09 Dec - 10:43:03 10° NW 10:44:31 11° NNW 10:45:58 10° NNW daylight
09 Dec - 14:14:06 10° N 14:16:17 12° NNE 14:18:27 10° NE daylight
09 Dec - 15:54:57 10° NNW 16:00:41 42° NE 16:06:05 10° ESE daylight
09 Dec - 17:37:52 10° NW 17:43:13 35° WSW 17:48:15 10° S daylight
